Temperature
18 18 18 18 18 18 18 18 18 18 18 18 17 17 17 17 17 17 17 17 17 17 17 17 17 17 17 17 16 16 16 16 16 16 16 16 16 16 15 15 15 15 15
18 18 18 18 18 18 18 18 18 18 17 17 17 17 17 17 17 17 17 17 17 17 17 17 17 17 17 17 16 16 16 16 16 16 16 16 16 15 15 15 15 15 15
18 18 18 18 18 17 17 17 17 17 17 17 17 17 17 17 17 17 17 17 17 17 17 17 17 17 17 17 16 16 16 16 16 16 16 16 16 16 15 15 15 15 15
18 18 18 18 17 17 17 17 17 17 17 17 17 17 17 17 17 17 17 17 17 17 17 17 17 17 17 17 16 16 16 16 16 16 16 16 16 16 15 15 15 15 15
18 18 18 18 17 17 17 17 17 17 17 17 17 17 17 17 17 17 17 17 17 17 17 17 17 17 17 16 16 16 16 16 16 16 16 16 16 16 15 15 15 15 15
18 18 18 18 18 17 17 17 17 17 17 17 17 17 17 17 17 17 17 17 17 17 17 17 17 17 16 16 16 16 16 16 16 16 16 16 16 15 15 15 15 15 15
18 18 18 18 18 17 17 17 17 17 17 17 17 17 17 17 17 17 17 17 17 17 17 17 16 16 16 16 16 16 16 16 16 16 16 16 15 15 15 15 15 15 15
18 18 18 18 18 17 17 17 17 17 17 17 17 17 17 17 17 17 17 17 17 17 17 17 17 17 16 16 16 16 16 16 16 16 16 16 15 15 15 15 15 15 15
18 18 18 18 17 17 17 17 17 17 17 17 17 17 17 17 17 17 17 17 17 17 17 17 17 17 16 16 16 16 16 16 16 16 16 15 15 15 15 15 15 15 15
17 17 17 17 17 17 17 17 17 17 17 17 17 17 17 17 17 17 17 17 17 17 17 17 17 17 17 16 16 16 16 16 16 16 16 15 15 15 15 15 15 15 15
17 17 17 17 17 17 17 17 17 17 17 17 17 17 17 17 17 17 17 17 17 17 17 17 17 17 17 17 16 16 16 16 16 16 15 15 15 15 15 15 15 15 15
17 17 17 17 17 17 17 17 17 17 17 17 17 17 17 17 17 17 17 17 17 17 17 17 17 17 17 17 16 16 16 16 16 16 15 15 15 15 15 15 15 15 15
17 17 17 17 17 17 17 17 17 17 17 17 17 17 17 17 17 17 17 17 17 17 17 17 17 17 17 17 16 16 16 16 16 15 15 15 15 15 15 15 15 14 14
18 17 17 17 17 17 17 17 17 17 17 17 17 17 17 17 17 17 17 17 17 17 17 17 17 17 17 16 16 16 16 16 15 15 15 15 15 15 14 14 14 14 14
17 17 17 17 17 17 17 17 17 17 17 17 17 17 17 17 17 17 17 17 17 17 17 16 16 16 16 16 16 16 16 15 15 15 15 14 14 14 14 14 14 13 13
17 17 17 17 17 17 17 17 17 17 16 16 16 16 16 16 17 17 17 17 17 17 17 16 16 16 16 16 16 15 15 15 15 14 14 14 14 14 13 13 13 13 13
17 17 17 17 17 17 17 16 16 16 16 16 16 16 16 16 16 16 17 17 17 17 16 16 16 16 16 15 15 15 15 14 14 14 14 13 13 13 13 13 12 12 12
17 17 17 17 17 17 16 16 16 16 16 16 16 16 16 16 16 16 16 16 16 16 16 16 15 15 15 15 15 14 14 14 14 13 13 13 13 12 12 12 12 11 11
17 17 16 16 16 16 16 16 16 16 16 16 16 16 16 16 16 16 16 16 16 16 15 15 15 15 14 14 14 14 13 13 13 12 12 12 12 12 11 11 11 11 10
16 16 16 16 16 16 16 16 15 15 15 15 15 15 15 15 15 15 15 15 15 15 15 15 14 14 13 13 13 13 13 12 12 11 11 11 11 11 11 10 10 10 9
16 16 16 16 16 16 15 15 15 15 15 15 15 15 15 15 15 15 15 14 14 14 14 14 14 13 13 13 12 12 12 12 11 11 10 10 10 10 10 9 9 9 8
16 16 16 16 15 15 15 15 15 15 15 14 14 14 14 14 14 14 14 14 14 13 13 13 13 12 12 12 11 11 11 11 10 10 10 9 9 9 9 8 8 8 8
15 15 15 15 15 15 15 15 14 14 14 14 14 14 14 14 13 13 13 13 13 13 12 12 12 11 11 11 10 10 10 10 9 9 9 8 8 8 7 7 7 7 7
15 15 15 15 15 14 14 14 14 14 14 13 13 13 13 13 12 12 12 12 12 12 11 11 11 10 10 10 9 9 9 9 8 8 8 7 7 7 7 6 6 6 6
15 14 14 14 14 14 14 14 13 13 13 13 12 12 12 12 12 11 12 11 11 10 10 10 9 9 9 8 8 8 8 8 8 7 7 6 6 6 6 6 5 5 5
14 14 14 13 13 13 13 13 13 13 13 12 12 11 11 11 11 10 10 10 10 9 9 9 8 8 8 8 7 7 7 7 6 6 5 5 5 5 5 5 5 5 4
Wind_Speed
6 7 6 7 7 7 6 5 4 3 2 3 5 8 10 11 11 12 12 14 14 13 13 12 11 10 10 9 9 9 9 8 8 8 7 7 7 8 8 7 6 6 6
9 7 5 6 6 8 8 7 6 4 3 3 4 7 9 11 11 12 12 14 14 14 13 12 12 11 10 9 9 9 9 9 8 8 7 7 7 7 7 7 7 6 6
11 8 5 5 6 9 8 6 5 3 2 2 3 5 7 10 11 12 13 13 13 14 13 12 12 11 10 10 9 9 10 9 9 9 9 8 7 7 7 7 7 7 7
13 9 5 5 7 8 7 4 3 3 2 2 2 2 4 7 9 11 12 12 13 12 13 13 12 12 11 11 10 10 10 10 10 10 10 9 9 8 8 8 8 7 8
13 10 6 6 8 6 4 4 3 3 3 2 2 2 2 3 6 9 10 12 13 13 13 14 14 13 12 12 11 11 11 11 11 11 11 11 10 10 10 10 9 9 9
12 10 6 6 7 4 4 3 4 3 3 3 2 2 1 2 3 4 7 10 12 13 14 13 13 13 13 13 12 12 11 11 12 11 11 11 11 11 11 11 10 10 10
11 9 5 5 5 5 5 5 4 4 2 2 3 2 2 1 2 3 4 5 8 12 13 14 13 12 11 13 13 13 12 11 11 11 10 10 10 10 11 11 11 11 11
10 9 6 5 5 5 5 5 4 3 2 3 3 3 1 3 3 2 2 4 5 8 10 13 13 13 12 11 12 13 12 11 10 10 10 9 9 9 9 9 9 9 10
10 9 8 6 5 5 5 5 5 6 4 2 3 4 3 4 2 3 2 3 4 4 5 9 11 13 13 11 11 13 13 12 11 10 9 8 8 9 9 9 9 9 9
9 9 8 8 6 5 6 6 5 4 5 3 2 2 3 4 3 1 3 2 3 4 5 5 8 11 13 12 11 11 12 11 11 9 8 7 7 7 7 7 8 8 9
6 8 8 7 6 5 6 6 5 5 4 5 4 2 2 1 2 3 2 2 2 2 3 4 5 7 11 12 11 11 12 12 11 9 8 6 6 6 6 6 6 7 7
4 6 8 7 6 6 6 6 6 6 5 5 4 3 3 3 3 3 3 3 2 2 1 2 2 5 8 10 10 11 12 11 10 8 6 6 5 4 4 4 4 4 5
5 7 7 6 5 6 6 6 6 5 6 5 5 4 3 3 3 4 3 2 2 2 1 0 1 3 6 8 9 10 10 10 9 7 5 4 4 3 2 2 2 2 3
6 6 6 6 6 6 6 5 4 5 5 5 6 5 3 3 3 3 4 4 2 1 1 1 1 1 4 6 8 10 8 8 8 7 6 4 3 3 2 1 0 1 2
6 6 6 6 5 5 5 6 5 5 5 5 5 4 3 3 2 3 3 4 5 3 1 1 1 1 2 5 6 7 7 8 8 8 7 5 4 3 3 2 1 1 2
6 7 7 6 6 6 6 5 4 5 5 5 4 4 3 2 2 2 2 2 3 4 3 1 0 1 2 4 5 6 7 7 7 7 6 5 4 3 3 2 1 1 1
6 7 7 6 6 6 6 6 6 5 6 5 4 5 4 4 3 2 2 2 3 4 3 1 1 2 2 3 5 5 4 4 4 4 4 3 3 3 3 2 2 1 2
6 6 5 5 6 6 6 7 7 6 6 6 5 5 4 4 4 3 2 3 2 3 4 3 1 2 3 2 4 4 4 4 4 3 3 2 2 2 2 3 2 2 2
5 5 5 5 5 5 6 6 6 5 5 5 6 6 5 4 3 2 3 3 2 3 3 4 2 2 3 3 4 4 5 4 5 6 5 4 3 3 4 4 4 3 2
4 4 4 5 5 5 5 6 6 5 4 4 4 5 5 5 5 4 3 3 3 4 5 5 3 2 3 2 3 3 3 3 3 5 7 6 6 5 4 3 3 3 2
4 4 4 4 4 4 5 6 6 6 6 5 4 4 4 6 7 5 3 3 4 5 5 5 4 3 3 3 2 1 2 2 3 4 3 5 6 6 6 4 3 3 3
3 4 4 4 4 3 5 8 8 6 6 7 6 6 6 8 10 11 10 9 7 7 6 4 3 4 2 2 2 2 2 2 2 3 3 3 4 3 5 5 6 6 5
3 4 4 4 4 4 7 9 10 8 7 7 6 6 6 7 8 8 12 14 13 13 10 7 6 4 3 1 2 3 3 4 2 3 2 3 3 3 5 6 8 9 8
4 4 5 5 5 5 8 11 12 9 8 8 7 7 8 7 7 9 10 11 10 9 10 9 8 6 5 3 3 3 3 3 3 4 4 2 3 3 4 6 9 11 11
5 5 6 7 7 7 9 11 11 9 9 10 8 8 8 8 10 12 12 12 11 9 14 17 16 14 13 12 9 5 5 5 3 3 3 2 3 3 3 3 9 13 13
7 7 8 7 8 8 10 12 11 8 10 9 8 8 11 11 11 12 10 10 10 7 7 9 10 11 11 12 11 6 4 4 2 2 3 2 2 3 3 3 6 11 13
Wind_Direction
161 160 163 172 180 182 180 179 191 205 197 171 158 148 145 148 154 160 166 168 167 165 164 164 165 165 164 164 165 165 163 164 165 165 165 165 166 167 166 164 165 165 165
166 165 167 175 187 192 188 182 187 190 184 159 150 149 151 158 164 167 169 174 177 175 174 174 175 175 176 177 179 179 177 178 179 179 179 179 180 182 182 183 181 181 184
172 170 167 178 189 191 182 172 172 168 163 148 146 152 158 163 170 174 177 181 184 185 185 186 186 186 188 190 192 192 191 191 191 192 193 193 194 193 194 197 198 200 203
172 168 168 178 183 175 163 154 153 144 148 144 154 166 157 165 173 177 182 188 190 193 196 197 197 196 198 201 203 205 204 202 201 203 205 206 206 208 210 213 215 217 217
169 167 169 172 169 159 157 167 152 149 153 161 168 166 169 168 176 183 189 196 198 200 201 205 206 205 208 211 212 214 213 212 211 212 214 216 217 218 222 225 227 229 230
167 163 167 165 158 147 152 152 151 149 152 160 151 137 190 183 179 187 197 200 204 207 209 210 210 213 217 219 221 221 220 219 218 219 222 224 225 225 228 231 233 235 238
167 161 164 158 152 158 168 158 143 145 143 128 90 33 348 316 218 210 200 193 201 207 208 212 210 211 218 225 227 226 226 225 221 221 224 227 231 231 234 237 240 242 244
173 172 161 162 159 155 158 160 147 141 159 145 131 105 18 336 317 248 200 196 199 200 203 210 209 212 216 220 225 227 227 226 224 224 225 229 233 235 237 239 242 245 248
178 174 166 162 167 164 169 174 163 153 166 183 157 148 155 217 272 309 250 212 196 194 205 205 207 212 216 220 223 228 228 226 226 227 228 231 233 237 240 242 245 249 253
181 179 167 167 172 172 174 182 177 162 153 171 189 185 173 163 162 258 312 280 226 208 209 207 210 212 213 214 217 220 221 220 222 224 227 229 232 237 242 245 249 253 255
189 183 174 171 176 180 182 182 172 167 162 167 173 171 158 138 137 151 232 289 301 252 213 198 198 201 204 207 209 214 216 216 218 220 223 228 232 235 240 247 255 262 266
194 192 181 177 181 183 184 185 179 169 170 166 167 164 163 160 180 166 188 225 238 267 239 201 190 190 195 197 201 207 212 213 212 213 219 224 229 236 245 256 269 280 287
195 199 193 185 185 187 183 176 174 174 171 169 173 179 181 184 172 164 164 191 220 279 337 326 204 180 186 184 190 196 199 197 198 200 205 212 217 223 238 258 283 304 314
194 189 190 191 189 182 182 174 176 184 177 179 185 180 180 194 177 174 169 159 153 337 357 294 342 138 174 172 183 183 180 188 187 186 188 190 195 204 207 215 287 347 347
188 182 184 186 189 183 178 172 181 186 175 181 186 183 184 201 189 187 173 161 155 167 232 284 321 331 148 155 172 166 163 169 176 180 183 184 185 180 167 147 114 60 18
186 177 184 187 187 186 184 178 180 184 176 187 184 180 194 202 178 168 162 154 152 157 183 245 244 344 84 114 134 147 156 162 174 181 185 190 188 177 170 162 150 116 29
180 180 188 189 189 190 187 182 187 181 182 189 189 183 192 184 161 149 136 132 134 136 154 168 44 29 65 84 82 106 118 121 137 156 167 169 177 185 177 157 120 97 61
180 183 184 187 190 189 184 182 190 185 185 188 188 177 185 180 162 155 141 130 136 137 146 152 74 45 50 77 84 84 73 82 99 99 115 112 111 128 136 133 120 108 79
179 181 177 186 188 184 181 181 178 175 181 185 180 173 173 158 160 148 138 145 144 128 126 135 128 61 47 58 68 65 57 47 65 62 59 56 64 97 114 116 96 82 68
171 177 180 181 176 174 171 163 158 157 158 161 162 157 156 152 156 149 140 148 134 115 112 117 112 76 53 38 72 67 45 29 39 44 46 50 60 72 78 89 74 59 45
167 166 157 156 160 165 169 154 151 152 148 137 124 121 126 122 121 123 127 130 127 121 114 111 105 84 57 54 55 42 68 42 35 32 33 36 45 44 39 45 48 39 22
137 139 143 145 151 164 153 151 146 138 133 128 120 107 100 96 97 95 96 98 113 125 125 117 109 106 94 67 45 65 71 66 27 360 38 30 37 27 20 33 25 14 1
139 131 137 138 135 135 139 139 134 130 124 124 124 120 109 98 94 94 85 77 73 82 98 117 115 114 113 108 91 69 62 71 51 331 35 29 10 5 3 15 13 2 351
126 122 118 120 117 114 120 121 115 110 104 99 98 102 105 100 103 107 98 85 74 67 80 87 98 93 93 88 89 102 101 87 51 9 31 46 346 339 342 356 6 0 352
109 104 102 103 106 103 106 114 113 111 102 93 88 91 102 102 104 108 105 100 89 78 80 86 87 84 78 72 71 72 62 67 43 356 4 50 338 333 335 332 348 352 350
108 102 93 91 99 101 100 109 113 114 108 100 87 81 87 99 103 107 107 107 102 95 89 81 72 67 63 59 58 67 89 88 80 0 335 31 348 358 345 324 328 339 343
Height
1563 1565 1567 1569 1570 1572 1573 1575 1576 1578 1579 1580 1581 1582 1583 1584 1585 1585 1586 1586 1587 1587 1588 1588 1589 1590 1590 1591 1591 1592 1592 1593 1593 1594 1594 1594 1595 1595 1595 1595 1596 1596 1596
1563 1565 1567 1569 1570 1572 1574 1575 1577 1578 1579 1581 1582 1583 1583 1584 1585 1586 1586 1587 1587 1588 1588 1589 1589 1590 1591 1591 1592 1592 1593 1593 1593 1594 1594 1595 1595 1595 1595 1596 1596 1596 1596
1563 1565 1566 1568 1570 1572 1574 1576 1577 1578 1580 1581 1582 1583 1584 1584 1585 1586 1587 1587 1587 1588 1588 1589 1589 1590 1591 1591 1592 1592 1593 1593 1593 1594 1594 1594 1595 1595 1595 1595 1596 1596 1596
1562 1564 1566 1568 1570 1572 1573 1575 1577 1578 1580 1581 1582 1583 1584 1584 1585 1586 1587 1587 1588 1588 1589 1589 1589 1590 1590 1591 1591 1592 1592 1592 1593 1593 1594 1594 1594 1594 1595 1595 1595 1595 1595
1562 1564 1566 1567 1569 1571 1573 1575 1576 1578 1579 1580 1581 1582 1583 1584 1585 1586 1586 1587 1587 1588 1588 1589 1589 1590 1590 1591 1591 1591 1592 1592 1592 1592 1593 1593 1593 1594 1594 1594 1594 1594 1594
1560 1563 1565 1566 1568 1570 1572 1574 1575 1577 1578 1580 1581 1582 1583 1583 1584 1585 1585 1586 1587 1587 1588 1588 1589 1589 1589 1590 1590 1591 1591 1591 1591 1591 1592 1592 1592 1592 1592 1593 1593 1593 1593
1559 1561 1563 1565 1567 1569 1571 1572 1574 1576 1577 1579 1580 1581 1582 1582 1583 1583 1584 1585 1586 1586 1587 1587 1588 1588 1589 1589 1589 1590 1590 1590 1590 1590 1590 1590 1591 1591 1591 1591 1591 1591 1591
1557 1559 1561 1563 1565 1567 1569 1571 1573 1574 1576 1577 1579 1579 1580 1582 1582 1582 1583 1583 1584 1585 1585 1586 1587 1587 1588 1588 1588 1588 1588 1588 1589 1589 1589 1589 1589 1589 1589 1589 1589 1589 1589
1555 1558 1559 1561 1563 1565 1567 1569 1571 1573 1574 1576 1577 1578 1579 1579 1580 1581 1581 1582 1583 1583 1584 1585 1586 1586 1587 1587 1587 1587 1587 1587 1587 1587 1587 1587 1587 1587 1587 1587 1587 1587 1587
1552 1555 1557 1559 1562 1564 1565 1567 1569 1571 1572 1574 1575 1576 1578 1578 1578 1578 1580 1580 1581 1581 1582 1583 1584 1584 1585 1585 1586 1586 1586 1586 1586 1586 1586 1586 1585 1585 1585 1585 1585 1585 1585
1550 1552 1555 1557 1559 1561 1563 1565 1567 1568 1570 1572 1573 1574 1575 1576 1576 1577 1577 1578 1579 1579 1580 1581 1581 1582 1583 1583 1584 1584 1584 1584 1584 1584 1584 1584 1584 1583 1583 1583 1583 1582 1582
1547 1549 1552 1554 1556 1558 1560 1562 1564 1566 1568 1569 1571 1572 1573 1574 1574 1575 1575 1576 1577 1578 1578 1579 1580 1580 1581 1581 1582 1582 1583 1583 1583 1583 1582 1582 1582 1581 1581 1581 1580 1580 1579
1544 1546 1549 1551 1553 1555 1557 1559 1561 1563 1565 1566 1568 1569 1571 1572 1573 1573 1574 1574 1575 1576 1576 1577 1577 1578 1579 1579 1580 1580 1581 1581 1581 1580 1580 1580 1579 1579 1578 1578 1578 1577 1577
1540 1543 1545 1548 1550 1552 1554 1556 1558 1560 1562 1564 1565 1567 1568 1569 1570 1571 1572 1573 1573 1574 1574 1575 1575 1576 1576 1577 1578 1578 1578 1578 1578 1578 1578 1577 1577 1576 1576 1575 1575 1574 1573
1537 1540 1542 1544 1547 1549 1551 1553 1555 1557 1559 1560 1562 1564 1565 1566 1568 1568 1569 1570 1571 1571 1572 1572 1573 1573 1574 1574 1575 1575 1576 1576 1576 1576 1575 1575 1574 1574 1573 1572 1572 1571 1570
1534 1536 1538 1541 1543 1545 1547 1550 1551 1553 1555 1556 1558 1560 1562 1563 1565 1566 1567 1567 1568 1569 1569 1570 1570 1571 1572 1572 1572 1573 1573 1573 1573 1573 1573 1572 1572 1571 1570 1570 1569 1568 1567
1530 1532 1535 1537 1539 1541 1543 1545 1547 1549 1551 1553 1554 1556 1558 1560 1561 1563 1564 1565 1565 1566 1566 1567 1568 1569 1569 1570 1570 1570 1571 1571 1570 1570 1570 1569 1569 1568 1568 1567 1566 1565 1564
1527 1529 1531 1533 1535 1537 1539 1541 1543 1545 1547 1549 1550 1552 1554 1556 1558 1559 1560 1561 1562 1563 1564 1564 1565 1566 1567 1567 1567 1568 1568 1568 1567 1567 1567 1566 1566 1565 1564 1564 1563 1562 1560
1524 1526 1528 1529 1531 1533 1535 1537 1539 1541 1543 1545 1547 1549 1550 1552 1553 1555 1556 1558 1559 1560 1561 1561 1562 1563 1564 1564 1564 1564 1565 1565 1564 1564 1563 1563 1563 1562 1561 1560 1559 1558 1557
1521 1523 1524 1526 1528 1530 1532 1533 1535 1538 1539 1541 1543 1545 1547 1548 1550 1552 1553 1554 1555 1556 1557 1558 1559 1560 1561 1561 1561 1561 1561 1562 1561 1561 1560 1560 1559 1559 1558 1557 1556 1555 1554
1519 1521 1522 1523 1525 1527 1529 1530 1532 1534 1536 1538 1540 1542 1544 1545 1547 1548 1549 1550 1552 1553 1554 1554 1555 1557 1557 1558 1558 1558 1558 1558 1558 1558 1558 1557 1556 1556 1555 1554 1553 1551 1550
1517 1518 1520 1521 1522 1524 1526 1528 1530 1532 1534 1535 1538 1540 1541 1543 1544 1546 1547 1548 1549 1550 1551 1552 1552 1553 1554 1555 1555 1555 1555 1555 1555 1556 1555 1554 1554 1553 1552 1551 1550 1549 1547
1516 1517 1518 1519 1521 1522 1524 1525 1527 1529 1531 1533 1535 1537 1538 1540 1542 1543 1544 1546 1547 1548 1549 1550 1550 1551 1552 1552 1553 1552 1552 1553 1553 1553 1553 1552 1551 1550 1550 1548 1547 1546 1544
1515 1516 1517 1518 1519 1521 1522 1524 1525 1527 1529 1531 1533 1535 1536 1538 1540 1541 1543 1544 1545 1546 1547 1548 1549 1549 1550 1551 1551 1551 1551 1551 1551 1551 1551 1550 1549 1548 1547 1546 1545 1543 1541
1514 1515 1516 1517 1518 1520 1521 1523 1524 1526 1527 1529 1531 1533 1535 1536 1538 1540 1541 1542 1544 1545 1546 1547 1548 1549 1550 1550 1550 1550 1549 1549 1549 1549 1549 1548 1547 1546 1545 1544 1542 1540 1538
1513 1515 1516 1517 1518 1519 1521 1522 1524 1525 1527 1528 1531 1533 1535 1536 1538 1540 1541 1542 1543 1544 1546 1547 1548 1549 1549 1549 1549 1549 1548 1548 1548 1548 1548 1547 1546 1545 1543 1542 1540 1538 1536